TITAN 3C TRANSTAGE DEB, 34165

Orbit data source: Space-Track

TITAN 3C TRANSTAGE DEB, 34165 is space debris in HEO originally from a launch on Tue, 21 Dec 1965 UTC launched from the Air Force Eastern Test Range (AFETR). Debris objects in space refer to the collection of defunct objects orbiting the Earth. Examples of debris include non-operational satellites, rocket bodies, and fragments generated from explosions, collisions, or faulty payload assembly.

Loading next visibility...
Identifier
34165, 1965-108CY
Orbit
HEO
Country
Flag of USUS
Related business
Manufacturer
Unknown
Mission
Spacecraft
Bus & Motor
Unknown
Mass
Unknown
Launch date (UTC)
1965-12-21 (61 years ago)
Launch vehicle
Unknown
Launch site
Air Force Eastern Test Range (AFETR)
Object type
Payload
Rocket body
Debris
Shape & HBR
Unknown shape, 0.1 m
Radar Cross Section
Medium (>0.1 m² and <1 m²)

Expand to show TLE details & history
Last TLE update: 1 day ago

TLE from 1 day ago
0 TITAN 3C TRANSTAGE DEB
1 34165U 65108CY  26205.99387530  .00003765  00000-0  12068-1 0  9997
2 34165  26.6132 114.3194 6365943  67.8899 345.7367  3.34325078158753
Epoch: 2026-07-24T23:51Z
TLE epoch observation values (Epoch: 2026-07-24T23:51:10.825Z)
Latitude
-0.00005°
Longitude
173.81612°
Altitude
2,683.289 km
Speed
8.178 km/s
True Right ascension
07h 37m 17s
True Declination
0° 00' 00"
Sunlit
Object was in daylight at epoch
Visualization orbit readout
Latitude
Unknown
Longitude
Unknown
Altitude
Unknown
Speed
Unknown
Apparent Right ascension
Unknown
Apparent Declination
Unknown
Sunlit
N/A
Visualization observer readout
Local Sidereal Time
17:59:07
Azimuth
Unknown
Elevation
Unknown
Doppler factor
Unknown
Orbital elements
Apogee altitude
24,547.039 km
Perigee altitude
488.797 km
Semi-major axis
18,896.055 km
Eccentricity
0.63659
Inclination
26.6132°
RAAN
114.3194°
Arg. of periapsis
67.8899°
True anomaly
291.80973°
Mean anomaly
345.7367°
Eccentric anomaly
324.61643°
Mean motion
0.83558 °/min
Orbital period
430.84 mins
BSTAR
0.012068

Documentation

Showing up to 5 results
|